CDT,Max TemperatureF,Mean TemperatureF,Min TemperatureF,Max Dew PointF,MeanDew PointF,Min DewpointF,Max Humidity, Mean Humidity, Min Humidity, Max Sea Level PressureIn, Mean Sea Level PressureIn, Min Sea Level PressureIn, Max VisibilityMiles, Mean VisibilityMiles, Min VisibilityMiles, Max Wind SpeedMPH, Mean Wind SpeedMPH, Max Gust SpeedMPH,PrecipitationIn, CloudCover, Events, WindDirDegrees
2011-10-1,73,62,50,45,42,35,80,50,25,30.12,30.05,29.98,10,10,10,18,7,23,0.00,0,,341
2011-10-2,73,58,44,44,41,37,89,55,27,30.17,30.12,30.07,10,10,10,12,5,17,0.00,0,,343
2011-10-3,79,61,43,47,39,27,82,52,15,30.23,30.17,30.13,10,10,10,9,5,18,0.00,0,,355
2011-10-4,82,64,45,52,44,36,90,57,21,30.25,30.19,30.14,10,10,10,8,3,,0.00,0,,12
2011-10-5,82,66,50,58,51,47,89,63,30,30.23,30.16,30.11,10,10,10,7,2,,0.00,0,Rain,66
2011-10-6,82,68,54,60,54,50,90,63,37,30.23,30.17,30.13,10,10,10,9,2,18,0.00,0,Hail,72
2011-10-7,82,71,60,55,52,49,75,54,31,30.29,30.22,30.18,10,10,10,13,6,,0.00,0,,64
2011-10-8,81,71,61,61,57,54,83,62,44,30.27,30.21,30.15,10,10,10,16,8,23,0.00,0,,75
2011-10-9,75,68,62,61,57,49,84,67,53,30.17,30.11,30.05,10,10,10,15,9,25,0.00,1,Hail,57
2011-10-10,73,68,63,64,62,59,93,87,71,30.03,29.95,29.86,10,8,2,18,9,31,0.14,6,Rain-Hail,23
2011-10-11,70,67,64,64,63,62,96,88,78,29.88,29.85,29.81,10,9,4,10,7,,0.01,8,Rain,22
2011-10-12,70,66,63,64,63,61,97,91,75,29.87,29.83,29.79,10,8,3,6,1,,0.01,8,Rain-Hail,306
2011-10-13,77,69,61,64,61,56,97,80,52,29.83,29.76,29.68,10,10,2,14,5,21,0.06,2,Hail,242
2011-10-14,82,68,54,56,50,40,93,63,22,30.02,29.93,29.84,10,10,10,10,4,,0.00,0,,314
2011-10-15,86,67,48,55,48,42,90,62,22,30.12,30.07,30.03,10,10,10,8,2,,0.00,0,Hail,303
2011-10-16,88,69,50,55,49,42,89,60,22,30.15,30.08,30.02,10,10,10,8,1,,0.00,0,,71
2011-10-17,88,69,50,57,52,46,90,61,24,30.02,29.93,29.83,10,10,10,7,1,,0.00,0,Hail,55
2011-10-18,82,68,54,68,63,51,93,79,54,29.81,29.66,29.56,10,9,2,13,3,24,0.26,3,Rain-Hail,201
2011-10-19,60,54,48,53,41,34,90,67,42,29.93,29.72,29.62,10,10,9,17,13,26,0.01,5,,291
2011-10-20,62,50,39,41,37,34,89,66,36,30.11,30.02,29.94,10,10,10,15,7,22,0.00,0,Hail,270
2011-10-21,66,52,39,38,34,28,89,48,23,30.22,30.15,30.12,10,10,10,9,5,18,0.00,0,,308
2011-10-22,71,54,36,42,37,34,93,61,26,30.19,30.12,30.07,10,10,10,9,3,16,0.00,0,,358
2011-10-23,73,55,37,50,42,35,93,64,30,30.12,30.08,30.04,10,10,10,5,1,,0.00,0,Rain,127
2011-10-24,79,65,51,55,50,47,87,66,36,30.20,30.13,30.07,10,10,10,9,2,,0.00,1,,341
2011-10-25,80,62,45,52,46,42,90,62,26,30.23,30.17,30.12,10,10,10,8,2,,0.00,0,,82
2011-10-26,79,62,44,55,50,41,90,68,37,30.13,30.05,29.98,10,10,10,10,2,20,0.00,0,Hail,179
2011-10-27,81,64,48,57,51,47,93,70,35,29.97,29.93,29.87,10,9,1,8,1,,0.00,0,,245
2011-10-28,78,63,48,61,52,46,97,81,54,30.03,29.94,29.87,10,8,0,15,4,22,0.01,3,Fog-Rain,306
2011-10-29,64,54,45,46,36,25,83,58,23,30.16,30.08,30.03,10,10,10,17,10,28,0.00,3,,348
2011-10-30,63,50,37,38,32,28,86,55,27,30.25,30.20,30.16,10,10,10,12,4,21,0.00,0,,73
2011-10-31,70,52,35,44,35,29,89,60,22,30.21,30.18,30.12,10,10,10,12,2,17,0.00,0,Hail,358